Hourly Weather Rudnya-Shlyakhova

Today, 15 April, Thursday

Time Temperature Precipitation Wind Pressure Humidity
00:00 +7°C° 0 mm 2 mps 740 mmHg 86%
01:00 +8°C° 0 mm 1 mps 740 mmHg 88%
02:00 +8°C° 0 mm 1 mps 740 mmHg 89%
03:00 +6°C° 0 mm 2 mps 740 mmHg 90%
04:00 +6°C° 0 mm 2 mps 740 mmHg 91%
05:00 +5°C° 0 mm 2 mps 740 mmHg 93%
06:00 +6°C° 0 mm 2 mps 740 mmHg 89%
07:00 +8°C° 0 mm 2 mps 740 mmHg 86%
08:00 +9°C° 0 mm 2 mps 740 mmHg 82%
09:00 +10°C° 0.3 mm 2 mps 740 mmHg 77%
10:00 +11°C° 0.3 mm 3 mps 740 mmHg 72%
11:00 +12°C° 0.3 mm 3 mps 740 mmHg 66%
12:00 +12°C° 0.6 mm 3 mps 740 mmHg 67%
13:00 +12°C° 0.6 mm 4 mps 740 mmHg 67%
14:00 +12°C° 0.6 mm 4 mps 739 mmHg 68%
15:00 +11°C° 0.6 mm 4 mps 739 mmHg 74%
16:00 +10°C° 0.6 mm 4 mps 739 mmHg 80%
17:00 +8°C° 0.6 mm 4 mps 739 mmHg 86%
18:00 +8°C° 1.4 mm 5 mps 739 mmHg 88%
19:00 +7°C° 1.4 mm 5 mps 739 mmHg 90%
20:00 +6°C° 1.4 mm 5 mps 739 mmHg 93%
21:00 +6°C° 1.1 mm 5 mps 739 mmHg 93%
22:00 +5°C° 1.1 mm 5 mps 739 mmHg 94%
23:00 +5°C° 1.1 mm 5 mps 739 mmHg 94%

Tomorrow, 16 April, Friday

Time Temperature Precipitation Wind Pressure Humidity
00:00 +5°C° 1.2 mm 5 mps 739 mmHg 94%
01:00 +3°C° 1.2 mm 5 mps 739 mmHg 95%
02:00 +3°C° 1.2 mm 5 mps 739 mmHg 95%
03:00 +3°C° 1 mm 5 mps 739 mmHg 95%
04:00 +3°C° 1 mm 5 mps 739 mmHg 95%
05:00 +2°C° 1 mm 5 mps 739 mmHg 96%
06:00 +2°C° 0.7 mm 5 mps 739 mmHg 95%
07:00 +2°C° 0.7 mm 5 mps 739 mmHg 95%
08:00 +2°C° 0.7 mm 5 mps 739 mmHg 95%
09:00 +2°C° 0.2 mm 5 mps 739 mmHg 95%
10:00 +2°C° 0.2 mm 5 mps 740 mmHg 95%
11:00 +2°C° 0.2 mm 5 mps 740 mmHg 95%
12:00 +2°C° 0.3 mm 5 mps 740 mmHg 95%
13:00 +2°C° 0.3 mm 5 mps 740 mmHg 95%
14:00 +2°C° 0.3 mm 5 mps 741 mmHg 96%
15:00 +2°C° 0.5 mm 5 mps 741 mmHg 96%
16:00 +2°C° 0.5 mm 5 mps 741 mmHg 95%
17:00 +2°C° 0.5 mm 5 mps 742 mmHg 95%
18:00 +2°C° 0.3 mm 5 mps 742 mmHg 96%
19:00 +1°C° 0.3 mm 5 mps 742 mmHg 96%
20:00 +1°C° 0.3 mm 5 mps 743 mmHg 96%
21:00 +1°C° 0 mm 5 mps 743 mmHg 96%
22:00 +1°C° 0 mm 4 mps 743 mmHg 96%
23:00 +1°C° 0 mm 4 mps 743 mmHg 96%

Day after tomorrow, 17 April, Saturday

Time Temperature Precipitation Wind Pressure Humidity
00:00 +1°C° 0 mm 4 mps 743 mmHg 96%
01:00 +1°C° 0 mm 4 mps 744 mmHg 95%
02:00 +2°C° 0 mm 3 mps 744 mmHg 95%
03:00 +2°C° 0 mm 3 mps 744 mmHg 94%
04:00 +2°C° 0 mm 3 mps 744 mmHg 93%
05:00 +3°C° 0 mm 2 mps 744 mmHg 93%
06:00 +2°C° 0 mm 3 mps 745 mmHg 92%
07:00 +2°C° 0 mm 3 mps 745 mmHg 91%
08:00 +3°C° 0 mm 3 mps 745 mmHg 90%
09:00 +4°C° 0 mm 3 mps 746 mmHg 84%
10:00 +4°C° 0 mm 3 mps 746 mmHg 79%
11:00 +5°C° 0 mm 3 mps 746 mmHg 74%
12:00 +7°C° 0 mm 2 mps 746 mmHg 72%
13:00 +7°C° 0 mm 2 mps 746 mmHg 69%
14:00 +8°C° 0 mm 2 mps 746 mmHg 66%
15:00 +8°C° 0 mm 2 mps 746 mmHg 66%
16:00 +8°C° 0 mm 2 mps 746 mmHg 65%
17:00 +10°C° 0 mm 1 mps 746 mmHg 64%
18:00 +9°C° 0 mm 1 mps 746 mmHg 68%
19:00 +8°C° 0 mm 1 mps 746 mmHg 71%
20:00 +8°C° 0 mm 1 mps 747 mmHg 75%
21:00 +7°C° 0 mm 1 mps 747 mmHg 76%
22:00 +7°C° 0 mm 1 mps 747 mmHg 76%
23:00 +7°C° 0 mm 1 mps 747 mmHg 77%

18 April, Sunday

Time Temperature Precipitation Wind Pressure Humidity
00:00 +7°C° 0 mm 1 mps 747 mmHg 77%
01:00 +6°C° 0 mm 1 mps 747 mmHg 77%
02:00 +5°C° 0 mm 2 mps 746 mmHg 77%
03:00 +4°C° 0 mm 2 mps 747 mmHg 78%
04:00 +4°C° 0 mm 2 mps 747 mmHg 79%
05:00 +3°C° 0 mm 2 mps 747 mmHg 80%
06:00 +5°C° 0 mm 2 mps 747 mmHg 76%
07:00 +6°C° 0 mm 2 mps 747 mmHg 71%
08:00 +8°C° 0 mm 2 mps 747 mmHg 67%
09:00 +9°C° 0 mm 2 mps 747 mmHg 62%
10:00 +10°C° 0 mm 2 mps 747 mmHg 58%
11:00 +11°C° 0 mm 3 mps 747 mmHg 53%
12:00 +12°C° 0 mm 3 mps 747 mmHg 52%
13:00 +12°C° 0 mm 3 mps 747 mmHg 51%
14:00 +13°C° 0 mm 3 mps 747 mmHg 50%
15:00 +13°C° 0 mm 3 mps 746 mmHg 53%
16:00 +13°C° 0 mm 3 mps 746 mmHg 56%
17:00 +12°C° 0 mm 3 mps 746 mmHg 59%
18:00 +11°C° 0 mm 3 mps 746 mmHg 63%
19:00 +10°C° 0 mm 3 mps 746 mmHg 68%
20:00 +9°C° 0 mm 3 mps 746 mmHg 73%
21:00 +9°C° 0 mm 3 mps 746 mmHg 74%
22:00 +8°C° 0 mm 3 mps 746 mmHg 75%
23:00 +8°C° 0 mm 3 mps 746 mmHg 76%

19 April, Monday

Time Temperature Precipitation Wind Pressure Humidity
00:00 +8°C° 0 mm 3 mps 745 mmHg 77%
01:00 +8°C° 0 mm 3 mps 745 mmHg 77%
02:00 +8°C° 0 mm 3 mps 745 mmHg 78%
03:00 +8°C° 0 mm 3 mps 745 mmHg 79%
04:00 +8°C° 0 mm 3 mps 744 mmHg 81%
05:00 +7°C° 0 mm 3 mps 744 mmHg 82%
06:00 +8°C° 0.1 mm 3 mps 744 mmHg 82%
07:00 +8°C° 0.1 mm 3 mps 744 mmHg 83%
08:00 +9°C° 0.1 mm 3 mps 743 mmHg 83%
09:00 +8°C° 0.7 mm 4 mps 743 mmHg 85%
10:00 +8°C° 0.7 mm 4 mps 743 mmHg 87%
11:00 +8°C° 0.7 mm 4 mps 742 mmHg 89%
12:00 +8°C° 1.7 mm 5 mps 742 mmHg 89%
13:00 +8°C° 1.7 mm 6 mps 741 mmHg 90%
14:00 +8°C° 1.7 mm 7 mps 741 mmHg 91%
15:00 +8°C° 0.4 mm 6 mps 740 mmHg 91%
16:00 +8°C° 0.4 mm 6 mps 740 mmHg 92%
17:00 +8°C° 0.4 mm 6 mps 739 mmHg 92%
18:00 +8°C° 0.3 mm 5 mps 739 mmHg 94%
19:00 +8°C° 0.3 mm 5 mps 738 mmHg 95%
20:00 +8°C° 0.3 mm 4 mps 738 mmHg 96%
21:00 +8°C° 0.2 mm 4 mps 737 mmHg 97%
22:00 +8°C° 0.2 mm 4 mps 736 mmHg 97%
23:00 +8°C° 0.2 mm 4 mps 735 mmHg 97%

20 April, Tuesday

Time Temperature Precipitation Wind Pressure Humidity
00:00 +8°C° 0.4 mm 5 mps 734 mmHg 97%
01:00 +8°C° 0.4 mm 5 mps 733 mmHg 97%
02:00 +8°C° 0.4 mm 6 mps 732 mmHg 96%
03:00 +8°C° 1.6 mm 6 mps 731 mmHg 96%
04:00 +8°C° 1.6 mm 7 mps 731 mmHg 96%
05:00 +8°C° 1.6 mm 7 mps 730 mmHg 95%
06:00 +6°C° 1 mm 7 mps 729 mmHg 95%
07:00 +6°C° 1 mm 7 mps 728 mmHg 95%
08:00 +6°C° 1 mm 8 mps 727 mmHg 95%
09:00 +6°C° 0.7 mm 7 mps 727 mmHg 95%
10:00 +8°C° 0.7 mm 7 mps 727 mmHg 94%
11:00 +8°C° 0.7 mm 7 mps 726 mmHg 94%
12:00 +9°C° 0.3 mm 6 mps 726 mmHg 89%
13:00 +10°C° 0.3 mm 6 mps 726 mmHg 84%
14:00 +12°C° 0.3 mm 5 mps 726 mmHg 80%
15:00 +12°C° 0.5 mm 5 mps 726 mmHg 81%
16:00 +12°C° 0.5 mm 5 mps 725 mmHg 82%
17:00 +11°C° 0.5 mm 4 mps 725 mmHg 83%
18:00 +11°C° 0.4 mm 3 mps 725 mmHg 87%
19:00 +10°C° 0.4 mm 3 mps 726 mmHg 91%
20:00 +9°C° 0.4 mm 2 mps 726 mmHg 94%
21:00 +9°C° 0.5 mm 3 mps 726 mmHg 95%
22:00 +8°C° 0.5 mm 3 mps 726 mmHg 95%
23:00 +7°C° 0.5 mm 4 mps 727 mmHg 96%
Show more